Content
SEND FEEDBACK

Daily
Averages
Monthly
Summary
French Polynesia

PAPEETE, FRENCH POLYNESIA


Home > Oceania > French Polynesia
Elevation: 2 meters     Latitude: 17 33S     Longitude: 149 36W

WEATHER
 
SELECT A DAY
Number of Records: 217,892;   Date Range: 6/30/96 - 12/27/14
 
SHARE

PRINT THIS DATA

[ ← Previous Day ]
WEATHER ALMANAC - 8 JULY, 2013
[ Next Day → ]
[ °F ]   °C
We're sorry. There is no daily almanac available for Papeete, French Polynesia on 8 July, 2013.
WEATHER BY HOUR - 8 JULY, 2013
[ °F ]   °C
Local TimeTemperatureDewpointHumidityBarometerVisibilityWind DirectionWind SpeedGust SpeedPrecipitationEventsConditions
12:30 AM22 °C19 °C83 %1013.2 hPa10 kmESE (120°)7.4 km/hPartly Cloudy
1:00 AM22 °C19 °C83 %1013.2 hPa10 kmESE (110°)7.4 km/hPartly Cloudy
1:30 AM22 °C19 °C83 %1012.2 hPa10 kmEast (100°)7.4 km/hPartly Cloudy
2:00 AM21.7 °C18.3 °C77 %1012.5 hPa19.3 kmESE (110°)7.4 km/hScattered Clouds
2:00 AM22 °C19 °C83 %1012.2 hPa10 kmESE (110°)7.4 km/hPartly Cloudy
2:30 AM22 °C19 °C83 %1012.2 hPa10 kmESE (110°)5.6 km/hPartly Cloudy
3:00 AM22 °C19 °C83 %1011.2 hPa10 kmESE (110°)5.6 km/hPartly Cloudy
3:30 AM22 °C19 °C83 %1011.2 hPa10 kmESE (110°)3.7 km/hMostly Cloudy
4:00 AM22 °C19 °C83 %1011.2 hPa10 kmVariable5.6 km/hMostly Cloudy
4:30 AM22 °C19 °C83 %1011.2 hPa10 kmSE (130°)1.9 km/h
5:00 AM21.7 °C18.9 °C79 %1011.5 hPa54.7 kmSSE (150°)5.6 km/hClear
5:00 AM22 °C19 °C83 %1011.2 hPa10 kmVariable5.6 km/hMostly Cloudy
5:30 AM22 °C19 °C83 %1011.2 hPa10 kmESE (120°)5.6 km/hMostly Cloudy
6:00 AM22 °C19 °C83 %1012.2 hPa10 kmVariable3.7 km/hScattered Clouds
6:30 AM22 °C19 °C83 %1012.2 hPa10 kmESE (120°)3.7 km/hPartly Cloudy
7:00 AM22 °C19 °C83 %1012.2 hPa10 kmESE (110°)5.6 km/hPartly Cloudy
7:30 AM23 °C20 °C83 %1013.2 hPa10 kmEast (90°)3.7 km/hPartly Cloudy
8:00 AM24.4 °C20 °C71 %1013.2 hPa19.3 kmEast (80°)3.7 km/hPartly Cloudy
8:00 AM25 °C20 °C74 %1013.2 hPa10 kmVariable3.7 km/hPartly Cloudy
8:30 AM26 °C19 °C65 %1013.2 hPa10 kmNW (320°)1.9 km/hPartly Cloudy
9:00 AM27 °C20 °C65 %1013.2 hPa10 kmNNW (330°)3.7 km/hPartly Cloudy
9:30 AM27 °C20 °C65 %1013.2 hPa10 kmVariable3.7 km/hPartly Cloudy
10:00 AM27 °C20 °C65 %1013.2 hPa10 kmVariable5.6 km/hPartly Cloudy
10:30 AM27 °C19 °C61 %1013.2 hPa10 kmWNW (300°)5.6 km/hPartly Cloudy
11:00 AM27.2 °C19.4 °C54 %1013.5 hPa19.3 kmWest (280°)10.8 km/hScattered Clouds
11:00 AM27 °C20 °C65 %1013.2 hPa10 kmWest (280°)5.6 km/hPartly Cloudy
11:30 AM28 °C20 °C62 %1013.2 hPa10 kmWSW (250°)7.4 km/hPartly Cloudy
12:00 PM28 °C20 °C62 %1012.2 hPa10 kmWSW (250°)9.3 km/hPartly Cloudy
12:30 PM28 °C19 °C58 %1012.2 hPa10 kmWSW (240°)7.4 km/hPartly Cloudy
1:00 PM29 °C20 °C58 %1011.2 hPa10 kmWSW (250°)9.3 km/hPartly Cloudy
1:30 PM29 °C20 °C58 %1011.2 hPa10 kmWest (270°)9.3 km/hPartly Cloudy
2:00 PM28.3 °C20 °C53 %1011.2 hPa19.3 kmWest (270°)14.8 km/hScattered Clouds
2:00 PM28 °C20 °C62 %1011.2 hPa10 kmWest (270°)14.8 km/hPartly Cloudy
2:30 PM28 °C20 °C62 %1010.2 hPa10 kmWest (280°)14.8 km/hPartly Cloudy
3:00 PM28 °C20 °C62 %1010.2 hPa10 kmWest (270°)13 km/hPartly Cloudy
3:30 PM29 °C19 °C55 %1010.2 hPa10 kmWNW (300°)7.4 km/hPartly Cloudy
4:00 PM29 °C19 °C55 %1010.2 hPa10 kmVariable3.7 km/hPartly Cloudy
4:30 PM29 °C20 °C58 %1011.2 hPa10 kmVariable3.7 km/hPartly Cloudy
5:00 PM27.2 °C20 °C55 %1011.2 hPa19.3 kmWest (260°)7.4 km/hScattered Clouds
5:00 PM27 °C20 °C65 %1011.2 hPa10 kmWest (260°)7.4 km/hPartly Cloudy
5:30 PM27 °C20 °C65 %1011.2 hPa10 kmWest (270°)9.3 km/hPartly Cloudy
6:00 PM26 °C20 °C69 %1011.2 hPa10 kmWest (280°)5.6 km/hPartly Cloudy
6:30 PM26 °C19 °C65 %1012.2 hPa10 kmWest (260°)7.4 km/hPartly Cloudy
7:00 PM26 °C19 °C65 %1012.2 hPa10 kmSW (230°)7.4 km/hPartly Cloudy
7:30 PM25 °C19 °C69 %1012.2 hPa10 kmSouth (170°)9.3 km/hPartly Cloudy
8:00 PM24.4 °C18.9 °C64 %1012.9 hPa19.3 kmSouth (180°)14.3 km/hScattered Clouds
8:00 PM24 °C19 °C73 %1012.2 hPa10 kmSouth (180°)7.4 km/hPartly Cloudy
8:30 PM24 °C19 °C73 %1013.2 hPa10 kmSouth (170°)3.7 km/hPartly Cloudy
9:00 PM24 °C19 °C73 %1013.2 hPa10 kmEast (80°)7.4 km/hPartly Cloudy
9:30 PM23 °C19 °C78 %1013.2 hPa10 kmEast (90°)7.4 km/hPartly Cloudy
10:00 PM23 °C19 °C78 %1013.2 hPa10 kmVariable5.6 km/hPartly Cloudy
10:30 PM23 °C19 °C78 %1013.2 hPa10 kmEast (80°)5.6 km/hPartly Cloudy
11:00 PM22.2 °C19.4 °C78 %1013.5 hPa19.3 kmESE (110°)1.9 km/hScattered Clouds
11:00 PM22 °C19 °C83 %1013.2 hPa10 kmCalmPartly Cloudy
11:30 PM22 °C19 °C83 %1013.2 hPa10 kmCalmPartly Cloudy
Hourly data recorded from NTAA, located 0 kilometers away from Papeete, French Polynesia







STORIES FROM OUR PARTNERS